QPF
0.00 0.00 0.00 0.00 0.00 0.00 0.00 0.00 0.00 0.00 0.00 0.00 0.00 0.00 0.00 0.00 0.00 0.00 0.00 0.00 0.00 0.00 0.00 0.00 0.00 0.00 0.00 0.00 0.00 0.00 0.00 0.01 0.00 0.00 0.00 0.00 0.00 0.00 0.00 0.00 0.00 0.00 0.00
0.00 0.00 0.00 0.00 0.00 0.00 0.00 0.00 0.00 0.00 0.00 0.00 0.00 0.00 0.00 0.00 0.00 0.00 0.00 0.00 0.00 0.00 0.00 0.00 0.00 0.00 0.00 0.00 0.00 0.00 0.00 0.00 0.00 0.00 0.00 0.00 0.00 0.00 0.00 0.00 0.00 0.00 0.00
0.00 0.00 0.00 0.00 0.00 0.00 0.00 0.00 0.00 0.00 0.00 0.00 0.00 0.00 0.00 0.00 0.00 0.00 0.00 0.00 0.00 0.00 0.00 0.00 0.00 0.00 0.00 0.00 0.00 0.00 0.00 0.00 0.00 0.00 0.00 0.00 0.00 0.00 0.00 0.00 0.00 0.00 0.00
0.00 0.00 0.00 0.00 0.00 0.00 0.00 0.00 0.00 0.00 0.00 0.00 0.00 0.00 0.00 0.00 0.00 0.00 0.00 0.00 0.00 0.00 0.00 0.00 0.00 0.00 0.00 0.00 0.00 0.00 0.00 0.00 0.00 0.00 0.00 0.00 0.00 0.00 0.00 0.00 0.00 0.00 0.00
0.00 0.00 0.00 0.00 0.00 0.00 0.00 0.00 0.00 0.00 0.00 0.00 0.00 0.00 0.00 0.00 0.00 0.00 0.00 0.00 0.00 0.00 0.00 0.00 0.00 0.00 0.00 0.00 0.00 0.00 0.00 0.00 0.00 0.00 0.00 0.00 0.00 0.00 0.00 0.00 0.00 0.00 0.00
0.00 0.00 0.00 0.00 0.00 0.00 0.00 0.00 0.00 0.00 0.00 0.00 0.00 0.00 0.00 0.00 0.00 0.00 0.00 0.00 0.00 0.00 0.00 0.00 0.00 0.00 0.00 0.00 0.00 0.00 0.00 0.00 0.00 0.00 0.00 0.00 0.00 0.00 0.00 0.00 0.00 0.00 0.00
0.00 0.00 0.00 0.00 0.00 0.00 0.00 0.00 0.00 0.00 0.00 0.00 0.00 0.00 0.00 0.00 0.00 0.00 0.00 0.00 0.00 0.00 0.00 0.00 0.00 0.00 0.00 0.00 0.00 0.00 0.00 0.00 0.00 0.00 0.00 0.00 0.00 0.00 0.00 0.00 0.00 0.00 0.00
0.00 0.00 0.00 0.00 0.00 0.00 0.00 0.00 0.00 0.00 0.00 0.00 0.00 0.00 0.00 0.00 0.00 0.00 0.00 0.00 0.00 0.00 0.00 0.00 0.00 0.00 0.00 0.00 0.00 0.00 0.00 0.00 0.00 0.00 0.00 0.00 0.00 0.00 0.00 0.00 0.00 0.00 0.00
0.00 0.00 0.00 0.00 0.00 0.00 0.00 0.00 0.00 0.00 0.00 0.00 0.00 0.00 0.00 0.00 0.00 0.00 0.00 0.00 0.00 0.00 0.00 0.00 0.00 0.00 0.00 0.00 0.00 0.00 0.00 0.00 0.00 0.00 0.00 0.00 0.00 0.00 0.00 0.00 0.00 0.00 0.00
0.00 0.00 0.00 0.00 0.00 0.00 0.00 0.00 0.00 0.00 0.00 0.00 0.00 0.00 0.00 0.00 0.00 0.00 0.00 0.00 0.00 0.00 0.00 0.00 0.00 0.00 0.00 0.00 0.00 0.00 0.00 0.00 0.00 0.00 0.00 0.00 0.00 0.00 0.00 0.00 0.00 0.00 0.00
0.00 0.00 0.00 0.00 0.00 0.00 0.00 0.00 0.00 0.00 0.00 0.00 0.00 0.00 0.00 0.00 0.00 0.00 0.00 0.00 0.00 0.00 0.00 0.00 0.00 0.00 0.00 0.00 0.00 0.00 0.00 0.00 0.00 0.00 0.00 0.00 0.00 0.00 0.00 0.00 0.00 0.00 0.00
0.00 0.00 0.00 0.00 0.00 0.00 0.00 0.00 0.00 0.00 0.00 0.00 0.00 0.00 0.00 0.00 0.00 0.00 0.00 0.00 0.00 0.00 0.00 0.00 0.00 0.00 0.00 0.00 0.00 0.00 0.00 0.00 0.00 0.00 0.00 0.00 0.00 0.00 0.00 0.00 0.00 0.00 0.00
0.00 0.00 0.00 0.00 0.00 0.00 0.00 0.00 0.00 0.00 0.00 0.00 0.00 0.00 0.00 0.00 0.00 0.00 0.00 0.00 0.00 0.00 0.00 0.00 0.00 0.00 0.00 0.00 0.00 0.00 0.00 0.00 0.00 0.00 0.00 0.00 0.00 0.00 0.00 0.00 0.00 0.00 0.00
0.00 0.00 0.00 0.00 0.00 0.00 0.00 0.00 0.00 0.00 0.00 0.00 0.00 0.00 0.00 0.00 0.00 0.00 0.00 0.00 0.00 0.00 0.00 0.00 0.00 0.00 0.00 0.00 0.00 0.00 0.00 0.00 0.00 0.00 0.00 0.00 0.00 0.00 0.00 0.00 0.00 0.00 0.00
0.00 0.00 0.00 0.00 0.00 0.00 0.00 0.00 0.00 0.00 0.00 0.00 0.00 0.00 0.00 0.00 0.00 0.00 0.00 0.00 0.00 0.00 0.00 0.00 0.00 0.00 0.00 0.00 0.00 0.00 0.00 0.00 0.00 0.00 0.00 0.00 0.00 0.00 0.00 0.00 0.00 0.00 0.00
0.00 0.00 0.00 0.00 0.00 0.00 0.00 0.00 0.00 0.00 0.00 0.00 0.00 0.00 0.00 0.00 0.00 0.00 0.00 0.00 0.00 0.00 0.00 0.00 0.00 0.00 0.00 0.00 0.00 0.00 0.00 0.00 0.00 0.00 0.00 0.00 0.00 0.00 0.00 0.00 0.00 0.00 0.00
0.00 0.00 0.00 0.00 0.00 0.00 0.00 0.00 0.00 0.00 0.00 0.00 0.00 0.00 0.00 0.00 0.00 0.00 0.00 0.00 0.00 0.00 0.00 0.00 0.00 0.00 0.00 0.00 0.00 0.00 0.00 0.00 0.00 0.00 0.00 0.00 0.00 0.00 0.00 0.00 0.00 0.00 0.00
0.00 0.00 0.00 0.00 0.00 0.00 0.00 0.00 0.00 0.00 0.00 0.00 0.00 0.00 0.00 0.00 0.00 0.00 0.00 0.00 0.00 0.00 0.00 0.00 0.00 0.00 0.00 0.00 0.00 0.00 0.00 0.00 0.00 0.00 0.00 0.00 0.00 0.00 0.00 0.00 0.00 0.00 0.00
0.00 0.00 0.00 0.00 0.00 0.00 0.00 0.00 0.00 0.00 0.00 0.00 0.00 0.00 0.00 0.00 0.00 0.00 0.00 0.00 0.00 0.00 0.00 0.00 0.00 0.00 0.00 0.00 0.00 0.00 0.00 0.00 0.00 0.00 0.00 0.00 0.00 0.00 0.00 0.00 0.00 0.00 0.00
0.00 0.00 0.00 0.00 0.00 0.00 0.00 0.00 0.00 0.00 0.00 0.00 0.00 0.00 0.00 0.00 0.00 0.00 0.00 0.00 0.00 0.00 0.00 0.00 0.00 0.00 0.00 0.00 0.00 0.00 0.00 0.00 0.00 0.00 0.00 0.00 0.00 0.00 0.00 0.00 0.00 0.00 0.00
0.00 0.00 0.00 0.00 0.00 0.00 0.00 0.00 0.00 0.00 0.00 0.00 0.00 0.00 0.00 0.00 0.00 0.00 0.00 0.00 0.00 0.00 0.00 0.00 0.00 0.00 0.00 0.00 0.00 0.00 0.00 0.00 0.00 0.00 0.00 0.00 0.00 0.00 0.00 0.00 0.00 0.00 0.00
0.00 0.00 0.00 0.00 0.00 0.00 0.00 0.00 0.00 0.00 0.00 0.00 0.00 0.00 0.00 0.00 0.00 0.00 0.00 0.00 0.00 0.00 0.00 0.00 0.00 0.00 0.00 0.00 0.00 0.00 0.00 0.00 0.00 0.00 0.00 0.00 0.00 0.00 0.00 0.00 0.00 0.00 0.00
0.00 0.00 0.00 0.00 0.00 0.00 0.00 0.00 0.00 0.00 0.00 0.00 0.00 0.00 0.00 0.00 0.00 0.00 0.00 0.00 0.00 0.00 0.00 0.00 0.00 0.00 0.00 0.00 0.00 0.00 0.00 0.00 0.00 0.00 0.00 0.00 0.00 0.00 0.00 0.00 0.00 0.00 0.00
0.00 0.00 0.00 0.00 0.00 0.00 0.00 0.00 0.00 0.00 0.00 0.00 0.00 0.00 0.00 0.00 0.00 0.00 0.00 0.00 0.00 0.00 0.00 0.00 0.00 0.00 0.00 0.00 0.00 0.00 0.00 0.00 0.00 0.00 0.00 0.00 0.00 0.00 0.00 0.00 0.00 0.00 0.00
0.00 0.00 0.00 0.00 0.00 0.00 0.00 0.00 0.00 0.00 0.00 0.00 0.00 0.00 0.00 0.00 0.00 0.00 0.00 0.00 0.00 0.00 0.00 0.00 0.00 0.00 0.00 0.00 0.00 0.00 0.00 0.00 0.00 0.00 0.00 0.00 0.00 0.00 0.00 0.00 0.00 0.00 0.00
0.00 0.00 0.00 0.00 0.00 0.00 0.00 0.00 0.00 0.00 0.00 0.00 0.00 0.00 0.00 0.00 0.00 0.00 0.00 0.00 0.00 0.00 0.00 0.00 0.00 0.00 0.00 0.00 0.00 0.00 0.00 0.00 0.00 0.00 0.00 0.00 0.00 0.00 0.00 0.00 0.00 0.00 0.00
MSLP
1021.26 1022.42 1023.02 1023.73 1024.38 1025.09 1025.51 1026.06 1026.20 1026.34 1026.45 1026.28 1026.02 1025.53 1025.15 1024.85 1024.64 1024.12 1023.72 1023.25 1022.86 1022.34 1021.86 1021.45 1020.78 1020.08 1019.00 1017.75 1016.87 1015.81 1015.04 1014.15 1013.20 1012.36 1011.89 1011.61 1010.95 1010.36 1009.77 1009.17 1008.91 1008.70 1008.81
1020.98 1022.29 1023.42 1023.97 1024.49 1025.06 1025.73 1026.19 1026.38 1026.46 1026.52 1026.54 1026.13 1025.70 1025.48 1025.28 1024.79 1024.36 1023.85 1023.52 1023.21 1022.77 1022.29 1021.79 1021.23 1020.51 1019.58 1018.55 1017.12 1016.32 1015.68 1015.12 1014.40 1013.55 1013.07 1012.37 1012.03 1011.85 1011.60 1011.34 1011.17 1010.87 1010.88
1020.80 1021.93 1023.09 1023.91 1024.49 1025.22 1026.08 1026.58 1026.76 1026.96 1027.01 1026.74 1026.41 1026.15 1026.13 1026.00 1025.01 1024.65 1024.19 1023.76 1023.47 1023.28 1022.87 1022.27 1021.75 1021.01 1020.06 1019.13 1018.08 1016.96 1015.93 1015.29 1015.05 1014.46 1013.97 1013.44 1013.04 1012.81 1012.51 1012.89 1012.63 1012.60 1012.65
1020.77 1021.60 1022.85 1023.90 1024.76 1025.51 1026.36 1026.87 1027.21 1027.21 1027.35 1027.43 1027.23 1026.96 1026.60 1026.17 1025.33 1025.06 1024.60 1024.10 1023.84 1023.76 1023.35 1022.88 1022.34 1021.69 1020.78 1019.60 1018.73 1017.99 1017.06 1016.08 1015.55 1015.22 1014.81 1014.52 1014.14 1013.84 1013.68 1013.51 1013.37 1013.58 1013.53
1020.83 1021.76 1023.03 1024.14 1025.05 1025.72 1026.43 1027.08 1027.38 1027.43 1027.49 1027.74 1027.49 1027.15 1026.73 1026.20 1025.55 1025.19 1025.01 1024.42 1024.09 1024.06 1023.82 1023.33 1022.72 1022.10 1021.37 1020.29 1019.42 1018.68 1017.82 1017.05 1016.62 1016.15 1015.76 1015.39 1015.12 1014.64 1014.46 1014.50 1014.33 1014.35 1014.37
1020.67 1022.13 1023.25 1024.23 1025.41 1025.80 1026.35 1027.02 1027.34 1027.62 1027.61 1027.94 1027.82 1027.43 1027.02 1026.54 1025.69 1025.48 1025.45 1024.73 1024.38 1024.41 1024.05 1023.65 1023.03 1022.11 1021.51 1020.76 1020.02 1019.30 1018.77 1017.92 1017.25 1017.01 1016.73 1016.40 1016.08 1015.78 1015.37 1015.16 1015.08 1015.04 1015.36
1020.69 1022.11 1023.19 1024.10 1025.17 1025.77 1026.29 1026.90 1027.26 1027.48 1027.73 1027.95 1028.00 1027.48 1027.24 1027.23 1026.11 1025.65 1025.68 1025.05 1024.80 1024.97 1024.56 1024.07 1023.58 1022.67 1021.84 1021.17 1020.50 1019.84 1019.31 1018.79 1018.34 1017.89 1017.48 1017.31 1016.87 1016.54 1015.96 1015.48 1015.48 1015.48 1015.94
1020.44 1021.76 1022.89 1023.91 1024.97 1025.77 1026.20 1026.83 1027.10 1027.43 1027.57 1027.90 1028.00 1027.63 1027.38 1027.49 1026.41 1025.89 1025.80 1025.33 1025.09 1025.32 1025.17 1024.55 1024.02 1023.15 1022.41 1021.64 1020.95 1020.35 1019.82 1019.49 1018.94 1018.49 1018.15 1017.86 1017.53 1017.07 1016.51 1016.18 1016.22 1016.39 1016.67
1019.86 1021.02 1022.23 1023.34 1024.60 1025.35 1025.77 1026.45 1026.91 1027.35 1027.53 1027.77 1028.00 1027.67 1027.53 1027.57 1026.67 1026.12 1026.08 1025.48 1025.36 1025.43 1025.45 1025.03 1024.41 1023.66 1022.86 1022.08 1021.49 1020.89 1020.34 1020.02 1019.44 1018.93 1018.49 1018.17 1017.87 1017.47 1017.01 1016.66 1016.54 1016.36 1016.66
1019.10 1020.35 1021.55 1022.84 1023.88 1024.85 1025.40 1026.10 1026.43 1026.88 1027.38 1027.58 1027.76 1027.65 1027.68 1027.66 1026.97 1026.41 1026.28 1025.85 1025.63 1025.66 1025.49 1025.22 1024.80 1024.10 1023.36 1022.55 1022.12 1021.63 1020.96 1020.46 1019.91 1019.17 1018.82 1018.45 1018.17 1018.06 1017.69 1017.43 1017.25 1017.08 1017.15
1018.77 1020.25 1021.51 1022.37 1023.34 1024.25 1024.88 1025.70 1026.30 1026.70 1027.27 1027.68 1027.72 1027.81 1027.77 1027.84 1027.52 1026.81 1026.57 1026.30 1026.26 1026.06 1025.90 1025.53 1025.17 1024.41 1023.96 1023.20 1022.71 1022.25 1021.73 1020.96 1020.21 1019.78 1019.34 1018.97 1018.54 1018.22 1018.23 1017.97 1017.86 1017.68 1017.43
1018.90 1020.00 1021.13 1022.29 1023.09 1023.87 1024.60 1025.49 1026.09 1026.57 1026.99 1027.56 1027.73 1027.57 1027.56 1027.74 1027.53 1027.41 1027.07 1026.72 1026.65 1026.53 1026.40 1026.08 1025.67 1024.91 1024.31 1023.94 1023.33 1022.73 1022.18 1021.54 1020.95 1020.28 1019.86 1019.50 1019.08 1018.87 1018.61 1018.37 1018.47 1018.27 1018.17
1019.09 1019.88 1020.66 1021.88 1022.81 1023.65 1024.23 1025.04 1025.64 1026.17 1026.55 1027.00 1027.33 1027.46 1027.45 1027.56 1027.44 1027.49 1027.36 1027.06 1026.96 1027.02 1027.03 1026.62 1026.07 1025.46 1024.85 1024.49 1023.89 1023.41 1023.02 1022.50 1021.92 1021.36 1020.77 1020.16 1019.59 1019.20 1018.83 1018.70 1018.63 1018.61 1018.54
1019.14 1020.06 1020.84 1021.48 1022.41 1023.35 1024.00 1024.74 1025.06 1025.79 1026.14 1026.70 1027.08 1027.31 1027.38 1027.49 1027.64 1027.47 1027.39 1027.13 1027.12 1027.16 1027.30 1026.82 1026.22 1025.85 1025.45 1025.08 1024.65 1024.27 1023.96 1023.55 1023.07 1022.48 1021.97 1021.18 1020.14 1019.51 1019.25 1019.15 1018.94 1018.78 1018.66
1018.89 1019.90 1020.57 1021.42 1022.05 1022.96 1023.83 1024.35 1024.80 1025.54 1025.70 1026.21 1026.78 1027.12 1027.20 1027.56 1027.97 1027.72 1027.58 1027.54 1027.56 1027.63 1027.74 1027.20 1026.83 1026.51 1026.24 1025.92 1025.54 1025.21 1024.78 1024.28 1023.82 1023.25 1022.56 1021.75 1020.92 1020.09 1019.79 1019.44 1019.26 1019.22 1019.16
1018.09 1019.20 1020.01 1021.02 1021.79 1022.61 1023.60 1024.54 1025.03 1025.80 1026.02 1026.36 1026.92 1027.37 1027.66 1027.78 1028.19 1028.04 1027.93 1028.09 1028.01 1027.57 1027.79 1027.97 1028.06 1027.85 1027.57 1027.29 1026.83 1026.22 1025.71 1025.25 1024.76 1024.21 1023.55 1022.80 1021.95 1021.12 1020.63 1020.31 1020.26 1020.23 1020.23
1016.78 1017.98 1019.47 1020.18 1021.22 1021.78 1023.27 1024.08 1024.70 1025.89 1026.31 1026.72 1027.10 1027.45 1027.67 1027.99 1028.40 1028.50 1028.41 1028.52 1028.44 1028.16 1028.55 1028.92 1029.12 1028.94 1028.71 1028.43 1028.13 1027.54 1026.93 1026.42 1025.77 1025.07 1024.50 1023.86 1023.27 1022.37 1021.72 1021.42 1021.19 1021.08 1021.16
1016.64 1017.43 1018.44 1019.59 1020.31 1021.24 1022.62 1023.58 1024.14 1024.80 1025.78 1026.51 1026.89 1027.46 1027.99 1028.28 1028.75 1028.78 1028.68 1028.81 1029.20 1029.34 1029.59 1029.72 1029.98 1029.80 1029.50 1029.23 1028.96 1028.48 1027.86 1027.19 1026.55 1025.95 1025.37 1024.73 1024.11 1023.28 1022.70 1022.49 1022.29 1022.01 1021.85
1016.37 1016.92 1018.08 1018.94 1020.11 1020.73 1022.05 1023.31 1023.87 1024.56 1025.52 1026.30 1027.05 1027.97 1028.37 1028.80 1029.27 1029.19 1029.06 1029.32 1029.58 1030.00 1030.28 1030.38 1030.55 1030.54 1030.19 1029.87 1029.56 1029.22 1028.67 1028.18 1027.64 1026.96 1026.36 1025.80 1025.05 1024.28 1023.71 1023.27 1022.93 1022.69 1022.45
1015.97 1016.73 1017.67 1018.49 1019.34 1020.43 1021.57 1022.45 1023.21 1024.00 1024.97 1026.00 1026.80 1027.46 1028.68 1029.58 1029.76 1029.78 1029.82 1029.95 1030.05 1030.45 1030.71 1030.97 1031.22 1031.18 1030.84 1030.64 1030.17 1029.81 1029.37 1028.79 1028.39 1027.87 1027.26 1026.62 1025.93 1025.24 1024.69 1024.09 1023.61 1023.21 1023.10
1015.11 1016.03 1017.23 1018.10 1018.89 1019.54 1020.81 1021.64 1022.39 1023.42 1024.52 1025.43 1026.19 1026.97 1027.97 1028.72 1029.51 1029.91 1030.20 1030.48 1030.52 1030.90 1031.06 1031.17 1031.68 1031.77 1031.31 1031.07 1030.87 1030.40 1030.09 1029.71 1029.22 1028.85 1028.23 1027.50 1026.74 1026.14 1025.62 1024.91 1024.36 1024.05 1023.86
1014.35 1015.26 1016.51 1017.24 1018.22 1019.14 1020.21 1021.13 1021.91 1022.85 1024.01 1024.95 1025.87 1026.76 1027.43 1028.48 1029.17 1029.82 1030.25 1030.85 1031.05 1031.29 1031.55 1031.43 1031.81 1032.15 1032.11 1031.77 1031.53 1031.09 1030.74 1030.45 1029.95 1029.42 1029.04 1028.36 1027.68 1027.04 1026.28 1025.56 1025.01 1024.67 1024.42
1013.87 1014.62 1015.86 1016.75 1017.65 1018.75 1019.78 1020.67 1021.54 1022.40 1023.49 1024.42 1025.38 1026.35 1027.09 1028.14 1028.95 1029.59 1030.14 1030.76 1031.30 1031.57 1031.88 1031.74 1032.01 1032.47 1032.46 1032.17 1031.99 1031.79 1031.54 1031.22 1030.75 1030.16 1029.76 1029.18 1028.43 1027.74 1027.00 1026.32 1025.73 1025.22 1024.81
1012.96 1013.89 1014.79 1015.76 1016.91 1018.02 1018.96 1020.01 1021.06 1022.01 1022.88 1023.84 1024.72 1025.57 1026.56 1027.52 1028.62 1029.33 1029.92 1030.59 1031.12 1031.52 1031.92 1032.28 1032.28 1032.63 1032.88 1032.65 1032.29 1032.06 1031.86 1031.51 1031.00 1030.59 1030.38 1029.93 1029.10 1028.27 1027.64 1026.99 1026.49 1026.13 1025.72
1012.01 1012.96 1013.83 1014.74 1015.51 1016.77 1018.14 1019.25 1020.36 1021.39 1022.32 1023.19 1024.05 1025.13 1026.15 1027.16 1028.16 1029.01 1029.70 1030.46 1031.09 1031.42 1031.80 1032.19 1032.38 1032.59 1032.90 1032.88 1032.69 1032.34 1032.02 1031.68 1031.06 1030.83 1030.42 1030.10 1029.67 1028.99 1028.37 1027.84 1027.27 1026.78 1026.36
1011.16 1011.89 1012.74 1013.87 1014.61 1015.57 1016.74 1018.05 1019.25 1020.54 1021.39 1022.53 1023.49 1024.65 1025.64 1026.70 1027.73 1028.47 1029.41 1030.22 1031.00 1031.32 1031.55 1031.93 1032.35 1032.46 1032.76 1032.80 1032.75 1032.48 1031.96 1031.40 1031.29 1030.96 1030.49 1030.10 1029.91 1029.55 1029.09 1028.55 1027.92 1027.53 1027.23
Thickness
5500 5486 5478 5468 5458 5446 5438 5427 5419 5411 5401 5396 5390 5385 5376 5366 5353 5340 5326 5313 5302 5294 5287 5280 5275 5275 5282 5293 5301 5310 5318 5327 5337 5349 5354 5357 5368 5379 5390 5402 5412 5423 5430
5495 5481 5467 5460 5451 5442 5431 5422 5414 5406 5399 5391 5387 5381 5373 5363 5352 5340 5327 5314 5302 5293 5285 5281 5274 5275 5281 5288 5303 5309 5317 5322 5331 5343 5349 5359 5364 5370 5380 5388 5396 5407 5415
5490 5477 5464 5454 5446 5435 5422 5414 5407 5400 5393 5388 5383 5376 5366 5356 5351 5339 5326 5315 5303 5292 5284 5281 5276 5276 5281 5285 5296 5308 5319 5325 5329 5336 5344 5350 5358 5363 5372 5375 5385 5394 5402
5483 5473 5459 5447 5437 5427 5415 5407 5400 5394 5387 5381 5376 5370 5363 5354 5348 5336 5324 5315 5303 5292 5284 5279 5276 5276 5281 5287 5293 5300 5311 5322 5328 5333 5340 5345 5352 5359 5364 5373 5381 5386 5396
5474 5464 5451 5438 5427 5419 5410 5401 5394 5388 5382 5376 5372 5367 5361 5353 5346 5335 5322 5315 5305 5293 5284 5280 5278 5277 5280 5286 5290 5296 5306 5316 5323 5328 5335 5341 5348 5357 5362 5367 5375 5382 5389
5467 5453 5442 5431 5418 5413 5406 5397 5389 5382 5378 5370 5366 5362 5356 5349 5344 5333 5321 5314 5305 5294 5287 5281 5279 5281 5282 5284 5288 5293 5299 5309 5319 5323 5330 5336 5341 5348 5355 5363 5370 5379 5384
5459 5446 5435 5426 5414 5407 5401 5392 5385 5378 5372 5366 5362 5360 5353 5343 5340 5332 5320 5313 5304 5291 5286 5281 5277 5279 5281 5283 5285 5289 5295 5302 5309 5317 5324 5329 5337 5344 5352 5362 5368 5375 5377
5454 5441 5431 5421 5409 5401 5395 5387 5381 5374 5369 5362 5358 5355 5350 5340 5337 5329 5319 5311 5303 5290 5283 5279 5276 5276 5277 5281 5284 5286 5290 5294 5303 5310 5317 5324 5332 5340 5349 5357 5361 5365 5368
5451 5441 5430 5419 5406 5398 5393 5384 5377 5369 5364 5359 5354 5351 5346 5338 5334 5327 5316 5310 5301 5290 5281 5277 5274 5274 5275 5277 5280 5283 5286 5289 5296 5303 5311 5318 5327 5336 5345 5354 5360 5367 5370
5450 5439 5428 5416 5404 5395 5389 5380 5375 5368 5359 5355 5352 5349 5342 5335 5331 5325 5314 5306 5299 5289 5280 5274 5270 5269 5271 5273 5274 5276 5280 5284 5291 5300 5307 5314 5321 5330 5339 5347 5353 5361 5365
5445 5432 5421 5411 5401 5392 5387 5378 5370 5364 5354 5349 5347 5343 5338 5331 5326 5320 5310 5302 5293 5285 5275 5271 5267 5265 5264 5267 5267 5269 5272 5278 5287 5293 5300 5307 5317 5326 5333 5340 5347 5354 5363
5438 5427 5416 5405 5396 5388 5382 5372 5365 5358 5351 5345 5342 5341 5336 5328 5323 5315 5306 5297 5289 5279 5269 5264 5260 5258 5257 5257 5259 5261 5266 5271 5277 5286 5293 5301 5309 5317 5326 5334 5340 5348 5353
5429 5421 5413 5401 5392 5383 5377 5369 5362 5355 5350 5345 5341 5337 5332 5326 5320 5312 5302 5293 5285 5273 5262 5255 5250 5245 5244 5245 5246 5249 5253 5258 5264 5272 5282 5292 5302 5311 5321 5329 5336 5341 5348
5420 5412 5405 5398 5389 5379 5373 5364 5360 5351 5347 5341 5337 5333 5328 5323 5316 5309 5300 5291 5281 5269 5256 5248 5240 5231 5222 5217 5215 5221 5231 5241 5249 5257 5266 5279 5295 5306 5316 5323 5331 5339 5346
5415 5406 5400 5392 5385 5375 5366 5360 5354 5346 5343 5339 5334 5330 5327 5319 5311 5305 5297 5287 5277 5264 5251 5240 5228 5214 5199 5189 5184 5189 5205 5224 5237 5248 5258 5272 5286 5300 5310 5320 5328 5334 5341
5413 5404 5397 5386 5379 5371 5360 5350 5345 5338 5334 5331 5327 5323 5318 5314 5307 5301 5293 5282 5272 5262 5249 5233 5216 5201 5185 5173 5169 5175 5190 5212 5229 5241 5250 5260 5276 5291 5302 5311 5318 5324 5329
5414 5404 5392 5385 5375 5370 5354 5346 5340 5330 5326 5323 5320 5316 5313 5310 5303 5296 5289 5278 5268 5258 5244 5229 5211 5199 5187 5178 5175 5180 5194 5212 5227 5238 5245 5253 5264 5278 5291 5300 5310 5316 5320
5406 5399 5390 5379 5373 5365 5351 5342 5338 5333 5324 5319 5316 5312 5306 5303 5297 5293 5286 5275 5263 5251 5240 5228 5214 5207 5199 5196 5194 5199 5210 5221 5230 5236 5243 5249 5259 5273 5285 5292 5298 5306 5313
5398 5394 5383 5375 5365 5359 5347 5337 5333 5328 5321 5315 5309 5304 5299 5295 5290 5287 5282 5273 5262 5250 5239 5230 5221 5216 5213 5213 5215 5217 5221 5224 5229 5235 5240 5244 5254 5265 5276 5286 5293 5299 5307
5387 5382 5374 5368 5361 5352 5342 5336 5331 5325 5318 5310 5305 5302 5293 5287 5283 5281 5276 5269 5261 5249 5239 5232 5225 5223 5221 5220 5223 5225 5226 5229 5231 5235 5238 5243 5251 5260 5270 5280 5288 5297 5301
5380 5374 5365 5360 5354 5349 5338 5333 5328 5320 5312 5308 5304 5300 5294 5289 5283 5278 5271 5265 5258 5248 5241 5235 5227 5224 5226 5226 5227 5228 5229 5231 5233 5234 5237 5242 5250 5257 5264 5273 5283 5289 5294
5371 5365 5357 5354 5348 5342 5334 5327 5322 5316 5308 5304 5300 5295 5293 5286 5281 5275 5269 5261 5254 5247 5240 5236 5230 5225 5224 5226 5228 5230 5231 5232 5234 5236 5238 5242 5247 5253 5262 5270 5278 5285 5291
5360 5356 5349 5345 5340 5332 5325 5319 5314 5309 5303 5300 5296 5291 5289 5282 5278 5273 5267 5260 5253 5247 5240 5236 5231 5226 5224 5225 5227 5230 5231 5232 5234 5236 5239 5242 5246 5251 5259 5267 5275 5282 5290
5351 5346 5343 5339 5332 5325 5319 5313 5306 5301 5298 5295 5293 5290 5286 5281 5275 5271 5265 5258 5253 5246 5240 5235 5231 5226 5223 5223 5224 5227 5231 5234 5236 5238 5239 5242 5247 5253 5258 5265 5272 5277 5284
5340 5337 5335 5332 5330 5322 5313 5307 5300 5294 5292 5291 5290 5286 5281 5277 5272 5268 5262 5257 5252 5246 5240 5234 5230 5227 5224 5222 5224 5226 5229 5234 5237 5241 5243 5244 5247 5251 5257 5262 5269 5276 5283
5328 5328 5326 5322 5322 5318 5311 5304 5296 5289 5289 5286 5285 5281 5277 5273 5268 5266 5260 5255 5250 5245 5240 5235 5230 5226 5223 5222 5222 5223 5227 5231 5235 5240 5245 5248 5250 5253 5256 5261 5268 5273 5279